Back to catalog

STARLINK-2684

AliveCommunicationsVLEO
NORAD 48471·PAYLOAD·🇺🇸 United States

Launched May 9, 2021 from Cape Canaveral Space Force Station

Loading…

Next Passes (next 24 hours)

TLE

FreshSource: CelesTrak SupGP

Epoch: Sep 14, 2026, 13:10 UTC

1 48471C 21040AV  26257.54909722 -.00023300  00000+0 -74959-3 0  2574
2 48471  53.1600  32.1427 0001198  81.3849  83.8002 15.31699988    13

Track STARLINK-2684 in real time with AllMySat

Download on the App Store